TimeEST,TemperatureF,Dew PointF,Humidity,Sea Level PressureIn,VisibilityMPH,Wind Direction,Wind SpeedMPH,Gust SpeedMPH,PrecipitationIn,Events,Conditions,WindDirDegrees,DateUTC
12:53 AM,41.0,37.0,86,30.06,10.0,Calm,Calm,-,N/A,,Clear,0,2012-12-19 05:53:00
1:53 AM,37.9,35.1,89,30.06,10.0,Calm,Calm,-,N/A,,Clear,0,2012-12-19 06:53:00
2:53 AM,37.9,34.0,86,30.06,10.0,Calm,Calm,-,N/A,,Clear,0,2012-12-19 07:53:00
3:53 AM,37.0,34.0,89,30.06,10.0,Calm,Calm,-,N/A,,Clear,0,2012-12-19 08:53:00
4:53 AM,37.0,33.1,86,30.07,10.0,Calm,Calm,-,N/A,,Clear,0,2012-12-19 09:53:00
5:53 AM,36.0,32.0,86,30.07,10.0,Calm,Calm,-,N/A,,Clear,0,2012-12-19 10:53:00
6:53 AM,35.1,30.9,85,30.10,10.0,Calm,Calm,-,N/A,,Clear,0,2012-12-19 11:53:00
7:53 AM,36.0,33.1,89,30.11,10.0,Calm,Calm,-,N/A,,Clear,0,2012-12-19 12:53:00
8:53 AM,43.0,37.9,82,30.13,10.0,Calm,Calm,-,0.01,,Clear,0,2012-12-19 13:53:00
9:53 AM,54.0,41.0,62,30.14,10.0,Calm,Calm,-,N/A,,Clear,0,2012-12-19 14:53:00
10:53 AM,63.0,37.9,40,30.14,10.0,SE,5.8,-,N/A,,Clear,140,2012-12-19 15:53:00
11:53 AM,68.0,37.0,32,30.13,10.0,Variable,4.6,-,N/A,,Clear,0,2012-12-19 16:53:00
12:53 PM,70.0,37.9,31,30.10,10.0,South,5.8,-,N/A,,Clear,180,2012-12-19 17:53:00
1:53 PM,71.1,37.9,30,30.08,10.0,South,5.8,-,N/A,,Clear,190,2012-12-19 18:53:00
2:53 PM,72.0,37.0,28,30.07,10.0,Variable,3.5,-,N/A,,Clear,0,2012-12-19 19:53:00
3:53 PM,73.0,37.0,27,30.06,10.0,SE,5.8,-,N/A,,Clear,130,2012-12-19 20:53:00
4:53 PM,70.0,41.0,35,30.05,10.0,SSE,8.1,-,N/A,,Clear,160,2012-12-19 21:53:00
5:53 PM,62.1,45.0,53,30.06,10.0,South,6.9,-,N/A,,Clear,170,2012-12-19 22:53:00
6:53 PM,57.9,45.0,62,30.08,10.0,Calm,Calm,-,N/A,,Clear,0,2012-12-19 23:53:00
7:53 PM,48.9,44.1,83,30.08,10.0,Calm,Calm,-,N/A,,Clear,0,2012-12-20 00:53:00
8:53 PM,48.9,43.0,80,30.07,10.0,Calm,Calm,-,N/A,,Clear,0,2012-12-20 01:53:00
9:53 PM,46.0,41.0,83,30.08,10.0,Calm,Calm,-,N/A,,Clear,0,2012-12-20 02:53:00
10:53 PM,45.0,41.0,86,30.07,10.0,Calm,Calm,-,N/A,,Clear,0,2012-12-20 03:53:00
11:53 PM,42.1,37.9,85,30.06,10.0,Calm,Calm,-,N/A,,Clear,0,2012-12-20 04:53:00